Total_Precipitation_Accumulation
0.20 0.21 0.30 0.44 0.43 0.29 0.11 0.03 0.02 0.03 0.04 0.05 0.06 0.08 0.07 0.08 0.13 0.28 0.29 0.21 0.21 0.24 0.34 0.60 0.91 1.08 1.09 1.02 0.91 0.81 0.75 0.69 0.71 0.74 0.75 0.73 0.68 0.66 0.68 0.72 0.76 0.83 0.91 0.89 0.90 0.84 0.80 0.72 0.62
0.22 0.33 0.53 0.63 0.47 0.29 0.11 0.03 0.02 0.03 0.04 0.05 0.07 0.08 0.08 0.09 0.11 0.18 0.28 0.28 0.25 0.28 0.39 0.60 0.91 1.15 1.18 1.13 1.04 0.96 0.96 0.89 0.86 0.89 0.90 0.87 0.86 0.82 0.80 0.82 0.85 0.85 0.85 0.80 0.76 0.65 0.58 0.48 0.43
0.37 0.53 0.74 0.70 0.51 0.27 0.11 0.04 0.04 0.05 0.05 0.07 0.08 0.09 0.11 0.14 0.15 0.20 0.30 0.37 0.40 0.42 0.54 0.77 1.03 1.23 1.31 1.21 1.20 1.17 1.16 1.12 1.08 1.02 1.00 1.01 0.98 0.94 0.87 0.85 0.87 0.81 0.76 0.69 0.63 0.51 0.40 0.35 0.31
0.60 0.79 0.83 0.70 0.50 0.24 0.10 0.06 0.07 0.08 0.07 0.08 0.11 0.17 0.18 0.17 0.21 0.26 0.38 0.48 0.53 0.59 0.71 0.97 1.19 1.35 1.40 1.29 1.28 1.30 1.31 1.33 1.28 1.15 1.08 1.10 1.08 0.99 0.88 0.83 0.78 0.70 0.65 0.62 0.54 0.45 0.36 0.32 0.31
0.89 1.01 0.85 0.65 0.42 0.22 0.10 0.09 0.10 0.11 0.11 0.12 0.15 0.22 0.26 0.24 0.26 0.39 0.56 0.66 0.70 0.82 0.94 1.16 1.44 1.62 1.65 1.54 1.47 1.45 1.42 1.42 1.43 1.33 1.21 1.22 1.23 1.18 1.01 0.84 0.72 0.62 0.59 0.55 0.50 0.42 0.38 0.35 0.32
1.17 1.17 0.90 0.57 0.34 0.21 0.11 0.10 0.11 0.14 0.14 0.16 0.22 0.28 0.38 0.37 0.40 0.51 0.74 0.88 0.92 1.03 1.17 1.40 1.69 1.80 1.89 1.79 1.70 1.68 1.62 1.51 1.48 1.48 1.41 1.35 1.36 1.36 1.15 0.89 0.74 0.68 0.64 0.57 0.53 0.49 0.42 0.39 0.34
1.18 1.18 0.86 0.44 0.29 0.24 0.14 0.12 0.16 0.17 0.17 0.19 0.25 0.36 0.49 0.56 0.66 0.73 0.93 1.13 1.23 1.33 1.50 1.65 1.84 1.96 2.14 1.99 1.80 1.79 1.77 1.66 1.58 1.56 1.50 1.39 1.37 1.32 1.16 0.94 0.83 0.78 0.72 0.64 0.58 0.57 0.50 0.44 0.38
1.18 1.28 0.86 0.43 0.27 0.27 0.19 0.16 0.19 0.21 0.21 0.22 0.32 0.44 0.55 0.68 0.86 1.05 1.24 1.35 1.55 1.67 1.83 1.91 2.03 2.11 2.28 2.24 1.95 1.77 1.66 1.63 1.65 1.57 1.37 1.16 1.17 1.21 1.16 0.89 0.82 0.82 0.75 0.66 0.63 0.59 0.54 0.46 0.36
1.21 1.28 0.83 0.45 0.33 0.30 0.25 0.27 0.25 0.24 0.32 0.36 0.42 0.50 0.62 0.82 1.12 1.39 1.63 1.72 1.90 2.07 2.13 2.18 2.19 2.17 2.27 2.36 2.15 2.00 1.84 1.75 1.68 1.61 1.35 1.19 1.23 1.18 1.10 0.88 0.72 0.78 0.76 0.72 0.72 0.69 0.60 0.48 0.37
1.25 1.05 0.61 0.40 0.36 0.36 0.31 0.33 0.34 0.40 0.45 0.51 0.61 0.70 0.86 1.15 1.54 1.72 1.82 1.89 2.01 2.18 2.26 2.36 2.31 2.28 2.36 2.39 2.33 2.29 2.11 1.95 1.80 1.61 1.47 1.36 1.26 1.25 1.12 1.03 0.83 0.82 0.81 0.80 0.80 0.73 0.69 0.55 0.41
0.91 0.76 0.52 0.41 0.39 0.40 0.41 0.38 0.40 0.49 0.54 0.52 0.61 0.82 1.14 1.51 1.90 1.96 2.08 2.18 2.19 2.35 2.44 2.53 2.47 2.49 2.47 2.45 2.34 2.29 2.16 2.12 2.03 1.84 1.60 1.51 1.44 1.35 1.34 1.18 1.05 0.99 0.87 0.87 0.82 0.76 0.68 0.57 0.47
0.65 0.52 0.48 0.46 0.41 0.44 0.47 0.47 0.51 0.52 0.52 0.52 0.61 0.81 1.18 1.60 1.90 2.00 2.23 2.36 2.47 2.58 2.72 2.74 2.69 2.72 2.68 2.58 2.40 2.19 2.03 1.98 2.00 1.89 1.83 1.71 1.60 1.45 1.32 1.18 1.05 1.00 0.91 0.86 0.79 0.69 0.62 0.56 0.52
0.53 0.43 0.43 0.50 0.50 0.47 0.46 0.47 0.57 0.51 0.50 0.57 0.67 0.92 1.22 1.62 1.97 2.15 2.42 2.57 2.68 2.84 2.91 3.00 2.95 2.84 2.73 2.71 2.61 2.26 1.98 1.80 1.85 1.87 1.86 1.81 1.62 1.44 1.36 1.23 1.18 1.08 0.96 0.94 0.90 0.79 0.68 0.61 0.59
0.43 0.41 0.49 0.57 0.62 0.52 0.51 0.52 0.57 0.55 0.53 0.65 0.78 0.98 1.21 1.59 2.08 2.31 2.60 2.85 2.80 3.03 3.17 3.30 3.20 3.06 2.78 2.61 2.61 2.43 2.12 1.90 1.84 1.80 1.77 1.89 1.80 1.62 1.55 1.35 1.31 1.24 1.14 1.08 1.05 0.98 0.94 0.82 0.74
0.48 0.57 0.62 0.66 0.70 0.58 0.60 0.70 0.61 0.56 0.53 0.63 0.77 0.97 1.19 1.52 1.96 2.28 2.54 2.73 2.94 3.12 3.36 3.47 3.46 3.33 3.00 2.72 2.66 2.54 2.34 2.16 1.99 1.72 1.65 1.76 1.87 1.87 1.83 1.55 1.42 1.35 1.33 1.33 1.29 1.19 1.13 1.05 0.92
0.78 0.92 0.86 0.61 0.67 0.65 0.75 0.81 0.56 0.55 0.58 0.60 0.69 0.89 1.11 1.33 1.69 2.04 2.41 2.64 2.86 3.19 3.40 3.51 3.54 3.48 3.27 2.95 2.81 2.72 2.52 2.36 2.22 1.99 1.78 1.71 1.80 1.96 2.04 1.72 1.48 1.40 1.42 1.41 1.34 1.27 1.16 1.03 0.97
1.11 0.91 0.70 0.54 0.56 0.70 0.71 0.74 0.60 0.57 0.60 0.57 0.60 0.77 1.05 1.24 1.45 1.72 2.11 2.47 2.66 3.02 3.30 3.59 3.58 3.49 3.41 3.27 3.14 3.03 2.90 2.67 2.46 2.18 1.96 1.91 1.92 2.03 2.18 1.88 1.59 1.53 1.52 1.45 1.42 1.37 1.30 1.14 1.03
0.90 0.58 0.48 0.50 0.53 0.64 0.61 0.54 0.60 0.62 0.62 0.57 0.61 0.70 0.91 1.17 1.24 1.45 1.80 2.27 2.49 2.82 3.15 3.38 3.69 3.67 3.71 3.72 3.57 3.43 3.31 3.07 2.78 2.41 2.12 2.05 2.03 2.06 2.25 2.14 1.86 1.78 1.71 1.60 1.48 1.40 1.42 1.40 1.29
0.72 0.60 0.46 0.37 0.42 0.59 0.56 0.48 0.56 0.57 0.61 0.61 0.62 0.68 0.75 0.96 1.13 1.37 1.69 2.07 2.38 2.59 2.91 3.08 3.33 3.60 3.71 3.66 3.42 3.24 3.12 3.17 3.05 2.73 2.44 2.38 2.25 2.12 2.19 2.24 2.12 1.94 1.86 1.74 1.65 1.55 1.48 1.52 1.56
0.88 0.81 0.56 0.40 0.36 0.55 0.58 0.51 0.54 0.57 0.60 0.60 0.62 0.63 0.68 0.80 0.99 1.24 1.64 1.84 2.06 2.31 2.49 2.81 2.94 3.29 3.41 3.31 3.30 3.21 3.20 3.23 3.23 3.06 2.80 2.68 2.57 2.37 2.26 2.22 2.20 2.11 2.02 1.95 1.91 1.82 1.73 1.64 1.61
0.92 0.78 0.65 0.58 0.51 0.61 0.72 0.69 0.56 0.56 0.54 0.49 0.51 0.51 0.61 0.70 0.82 1.03 1.39 1.68 1.81 2.06 2.32 2.44 2.60 2.88 3.20 3.31 3.50 3.64 3.64 3.45 3.27 3.15 3.07 2.89 2.84 2.71 2.47 2.33 2.33 2.29 2.16 2.05 2.02 2.01 1.99 1.95 1.89
0.96 0.58 0.64 0.70 0.92 0.93 0.77 0.98 0.67 0.55 0.50 0.48 0.50 0.49 0.57 0.66 0.75 0.90 1.03 1.30 1.52 1.70 2.10 2.40 2.61 2.79 2.99 3.40 3.46 3.40 3.29 3.07 2.85 2.92 3.01 3.01 2.95 2.91 2.71 2.60 2.56 2.47 2.31 2.19 2.21 2.19 2.20 2.21 2.17
0.86 0.60 0.70 0.82 1.02 1.05 0.73 0.86 0.69 0.48 0.49 0.51 0.52 0.54 0.65 0.77 0.82 0.88 0.94 1.09 1.27 1.45 1.83 2.20 2.48 2.82 3.06 3.22 3.31 3.39 3.21 2.97 2.91 2.91 2.94 2.88 2.83 2.84 2.81 2.72 2.78 2.70 2.55 2.41 2.41 2.41 2.42 2.40 2.33
0.93 0.98 1.07 1.16 1.53 1.54 0.68 0.69 0.69 0.59 0.61 0.57 0.55 0.58 0.71 0.82 0.86 0.85 0.92 1.05 1.22 1.34 1.55 1.94 2.23 2.41 2.72 3.02 3.09 3.14 3.14 3.10 3.00 2.84 2.79 2.83 2.83 2.81 2.80 2.80 2.79 2.77 2.74 2.64 2.55 2.50 2.49 2.47 2.40
1.38 1.97 2.62 2.59 2.27 1.24 0.47 0.55 0.66 0.62 0.64 0.67 0.69 0.70 0.76 0.79 0.82 0.82 0.91 1.04 1.24 1.39 1.50 1.64 1.85 2.01 2.23 2.51 2.68 2.75 2.89 3.00 2.87 2.73 2.58 2.58 2.61 2.62 2.65 2.69 2.72 2.73 2.69 2.72 2.70 2.65 2.54 2.51 2.49
1.42 1.71 2.05 1.73 1.10 0.64 0.45 0.56 0.64 0.61 0.64 0.66 0.70 0.69 0.70 0.76 0.80 0.82 0.83 0.91 1.07 1.27 1.45 1.50 1.60 1.73 1.91 2.08 2.21 2.41 2.59 2.80 2.81 2.72 2.52 2.42 2.38 2.37 2.52 2.57 2.50 2.49 2.56 2.62 2.66 2.62 2.50 2.43 2.38
1.30 1.30 1.18 1.47 0.93 0.64 0.55 0.50 0.48 0.44 0.46 0.55 0.61 0.61 0.67 0.76 0.79 0.80 0.80 0.82 0.96 1.09 1.29 1.39 1.48 1.58 1.67 1.81 1.94 2.12 2.26 2.39 2.47 2.56 2.51 2.43 2.36 2.31 2.27 2.30 2.31 2.23 2.25 2.36 2.49 2.47 2.39 2.33 2.26
1.07 1.09 1.35 1.88 1.52 0.93 0.56 0.43 0.58 0.56 0.54 0.59 0.62 0.68 0.77 0.80 0.77 0.75 0.78 0.84 0.94 0.99 1.13 1.30 1.41 1.47 1.50 1.59 1.68 1.78 1.93 2.14 2.23 2.33 2.31 2.27 2.29 2.29 2.20 2.06 2.03 2.01 2.01 2.08 2.18 2.19 2.16 2.15 2.10
1.02 1.28 1.52 1.55 1.25 1.11 0.82 0.70 0.71 0.67 0.64 0.66 0.68 0.73 0.81 0.84 0.82 0.81 0.84 0.92 1.01 1.00 1.07 1.25 1.36 1.48 1.52 1.53 1.56 1.58 1.61 1.73 1.91 2.07 2.15 2.11 2.17 2.22 2.18 2.02 1.94 1.90 1.84 1.86 1.91 1.87 1.90 1.95 1.96
0.88 1.00 1.26 1.68 1.27 0.93 0.89 0.87 0.70 0.66 0.63 0.63 0.66 0.71 0.75 0.80 0.82 0.87 0.92 0.93 0.95 1.05 1.13 1.23 1.31 1.44 1.55 1.59 1.58 1.59 1.58 1.56 1.65 1.76 1.94 2.00 2.09 2.10 2.16 2.09 1.96 1.87 1.79 1.75 1.77 1.74 1.69 1.69 1.73